Probability
0 0 0 0 0 0 0 0 0 0 0 0 0 0 0 0 0 0 0 0 0 0 0 0 0 0 0 0 0 0 0 0 0 0 0 0 0 0 0 0 0 0 0
0 0 0 0 0 0 0 0 0 0 0 0 0 0 0 0 0 0 0 0 0 0 0 0 0 0 0 0 0 0 0 0 0 0 0 0 0 0 0 0 0 0 0
0 0 0 0 0 0 0 0 0 0 0 0 0 0 0 0 0 0 0 0 0 0 0 0 0 0 0 0 0 0 0 0 0 0 0 0 0 0 0 0 0 0 0
0 0 0 0 0 0 0 0 0 0 0 0 0 0 0 0 0 0 0 0 0 0 0 0 0 0 0 0 0 0 0 0 0 0 0 0 0 0 0 0 0 0 0
0 0 0 0 0 0 0 0 0 0 0 0 0 0 0 0 0 0 0 0 0 0 0 0 0 0 0 0 0 0 0 0 0 0 0 0 0 0 0 0 0 0 0
0 0 0 0 0 0 0 0 0 0 0 0 0 0 0 0 0 0 0 0 0 0 0 0 0 0 0 0 0 0 0 0 0 0 0 0 0 0 0 0 0 0 0
0 0 0 0 0 0 0 0 0 0 0 0 0 0 0 0 0 0 0 0 0 0 0 0 0 0 0 0 0 0 0 0 0 0 0 0 0 0 0 0 0 0 0
0 0 0 0 0 0 0 0 0 0 0 0 0 0 0 0 0 0 0 0 0 0 0 0 0 0 0 0 0 0 0 0 0 0 0 0 0 0 0 0 0 0 0
0 0 0 0 0 0 0 0 0 0 0 0 0 0 0 0 0 0 0 0 0 0 0 0 0 0 0 0 0 0 0 0 0 0 0 0 0 0 0 0 0 0 0
0 0 0 0 0 0 0 0 0 0 0 0 0 0 0 0 0 0 0 0 0 0 0 0 0 0 0 0 0 0 0 0 0 0 0 0 0 0 0 0 0 0 0
0 0 0 0 0 0 0 0 0 0 0 0 0 0 0 0 0 0 0 0 0 0 0 0 0 0 0 0 0 0 0 0 0 0 0 0 0 0 0 0 0 0 0
0 0 0 0 0 0 0 0 0 0 0 0 0 0 0 0 0 0 0 0 0 0 0 0 0 0 0 0 0 0 0 0 0 0 0 0 0 0 0 0 0 0 0
0 0 0 0 0 0 0 0 0 0 0 0 0 0 0 0 0 0 0 0 0 0 0 0 0 0 0 0 0 0 0 0 0 0 0 0 0 0 0 0 0 0 0
0 0 0 0 0 0 0 0 0 0 0 0 0 0 0 0 0 0 0 0 0 0 0 0 0 0 0 0 0 0 0 0 0 0 0 0 0 0 0 0 0 0 0
0 0 0 0 0 0 0 0 0 0 0 0 0 0 0 0 0 0 0 0 0 0 0 0 0 0 0 0 0 0 0 0 0 0 0 0 0 0 0 0 0 0 0
0 0 0 0 0 0 0 0 0 0 0 0 0 0 0 0 0 0 0 0 0 0 0 0 0 0 0 0 0 0 0 0 0 0 0 0 0 0 0 0 0 0 0
0 0 0 0 0 0 0 0 0 0 0 0 0 0 0 0 0 0 0 0 0 0 0 0 0 0 0 0 0 0 0 0 0 0 0 0 0 0 0 0 0 0 0
0 0 0 0 0 0 0 0 0 0 0 0 0 0 0 0 0 0 0 0 0 0 0 0 0 0 0 0 0 0 0 0 0 0 0 0 0 0 0 0 0 0 0
0 0 0 0 0 0 0 0 0 0 0 0 0 0 0 0 0 0 0 0 0 0 0 0 0 0 0 0 0 0 0 0 0 0 0 0 0 0 0 0 0 0 0
0 0 0 0 0 0 0 0 0 0 0 0 0 0 0 0 0 0 0 0 0 0 0 0 0 0 0 0 0 0 0 0 0 0 0 0 0 0 0 0 0 0 0
0 0 0 0 0 0 0 0 0 0 0 0 0 0 0 0 0 0 0 0 0 0 0 0 0 0 0 0 0 0 0 0 0 0 0 0 0 0 0 0 0 0 0
0 0 0 0 0 0 0 0 0 0 0 0 0 0 0 0 0 0 0 0 0 0 0 0 0 0 0 0 0 0 0 0 0 0 0 0 0 0 0 0 0 0 0
0 0 0 0 0 0 0 0 0 0 0 0 0 0 0 0 0 0 0 0 0 0 0 0 0 0 0 0 0 0 0 0 0 0 0 0 0 0 0 0 0 0 0
0 0 0 0 0 0 0 0 0 0 0 0 0 0 0 0 0 0 0 0 0 0 0 0 0 0 0 0 0 0 0 0 0 0 0 0 0 0 0 0 0 0 0
0 0 0 0 0 0 0 0 0 0 0 0 0 0 0 0 0 0 0 0 0 0 0 0 0 0 0 0 0 0 0 0 0 0 0 0 0 0 0 0 0 0 0
0 0 0 0 0 0 0 0 0 0 0 0 0 0 0 0 0 0 0 0 0 0 0 0 0 0 0 0 0 0 0 0 0 0 0 0 0 0 0 0 0 0 0
Wind_Speed
3 3 3 3 3 3 3 3 3 3 4 4 4 4 4 4 4 3 3 3 3 3 3 3 4 4 3 3 3 3 3 3 6 5 4 4 5 5 5 5 5 5 6
3 3 3 3 4 4 4 4 4 4 4 4 4 4 4 4 4 4 3 3 3 3 3 3 4 4 4 3 3 4 3 3 5 8 6 5 5 5 5 6 6 5 5
2 2 3 3 3 4 4 4 4 4 4 4 4 4 4 4 4 3 3 3 3 3 3 3 4 4 4 4 4 4 4 4 4 6 7 5 5 5 6 6 6 5 6
2 2 2 3 3 3 3 3 3 3 3 3 4 3 4 4 3 3 3 3 3 3 3 3 3 3 4 5 4 4 4 5 5 5 6 6 5 5 5 5 7 5 6
1 2 2 2 2 3 3 3 3 3 3 3 3 3 4 3 3 3 3 3 3 3 4 4 4 4 5 5 5 5 5 5 5 5 5 6 6 6 6 5 7 7 7
1 2 2 2 2 2 2 2 3 3 3 3 3 3 4 3 6 7 4 3 3 4 4 5 5 4 6 8 8 8 7 6 6 5 5 6 8 7 6 6 7 8 7
1 2 2 2 2 2 2 2 2 3 3 3 3 3 3 5 8 7 6 3 3 3 4 4 5 5 5 6 8 9 8 9 9 7 7 8 8 7 8 8 8 9 9
2 2 2 2 2 2 2 2 2 2 2 2 3 3 3 5 8 7 6 3 3 3 4 4 5 6 6 7 7 7 7 7 8 6 6 8 8 7 7 8 9 9 9
2 3 2 2 2 2 2 2 2 2 2 2 3 3 3 5 8 8 6 3 3 4 4 4 5 6 10 11 7 7 8 7 9 10 11 11 12 13 10 7 7 7 8
4 3 3 2 2 2 3 2 2 2 2 2 3 3 3 4 7 8 7 3 4 4 4 4 5 7 10 11 7 6 8 9 9 9 9 10 9 9 11 7 6 7 8
3 2 2 2 2 2 2 2 1 1 2 2 3 3 3 4 6 8 8 4 4 4 4 4 5 10 11 11 9 6 9 9 7 7 7 7 6 6 6 6 6 6 7
2 2 2 2 2 1 1 1 1 1 2 2 3 4 3 3 4 6 8 7 6 4 4 4 5 10 11 11 8 10 12 9 5 5 6 6 7 7 6 7 7 7 7
2 3 2 2 2 1 2 2 1 1 2 2 2 3 3 3 4 6 7 8 8 5 4 7 9 10 9 7 10 11 8 5 5 5 6 6 6 7 7 6 6 6 7
3 3 2 2 2 2 2 2 2 2 2 2 3 3 3 3 3 3 3 4 6 5 4 6 8 9 7 7 6 6 4 4 5 5 6 6 6 6 6 6 7 7 6
4 3 3 3 3 2 2 3 3 3 3 3 3 3 3 4 5 7 5 3 3 4 3 3 3 4 4 4 4 4 4 5 5 5 6 6 6 6 6 6 6 6 6
4 4 3 3 3 2 2 3 4 4 5 6 5 4 4 6 8 8 8 8 8 7 3 2 3 4 4 5 5 5 5 5 5 5 5 6 6 7 7 6 6 6 7
5 4 3 3 3 3 3 3 3 4 4 5 6 7 7 8 8 7 8 8 6 5 2 2 3 4 5 5 5 5 5 5 5 5 5 6 6 6 6 7 7 6 6
5 5 4 4 4 3 3 3 3 3 3 4 5 7 8 8 7 7 7 5 3 3 2 3 4 4 4 5 5 5 5 5 5 5 5 5 5 6 6 6 6 7 7
5 4 4 4 3 3 3 3 3 3 4 4 3 4 5 6 6 6 4 1 3 3 3 4 4 4 5 5 5 5 5 5 5 5 5 5 5 5 6 6 7 8 7
5 6 5 4 3 3 3 3 3 4 4 4 4 4 2 1 2 3 2 3 3 4 4 5 5 5 5 5 5 5 5 5 5 5 5 5 5 5 6 7 7 7 6
4 4 5 4 4 4 4 4 4 4 4 4 4 5 5 3 3 4 4 4 4 5 5 5 5 5 5 5 5 5 6 5 5 5 5 5 5 5 5 6 6 6 6
4 4 4 5 4 4 4 4 4 4 5 5 4 4 6 4 4 4 5 5 5 5 5 5 5 5 5 5 5 5 5 6 5 5 5 5 5 5 5 6 6 6 6
5 5 4 4 4 4 4 4 4 5 5 5 4 4 4 4 4 5 5 5 4 5 4 4 5 6 5 5 5 5 6 6 6 5 5 5 5 5 5 6 7 7 7
5 5 5 4 4 4 5 5 5 5 5 5 5 5 5 5 5 6 5 5 4 5 4 4 5 7 8 6 5 5 6 6 6 5 6 6 6 6 5 6 6 7 7
5 5 5 5 5 5 5 5 5 5 5 5 5 5 5 5 5 5 5 5 5 5 6 6 5 6 8 9 8 7 8 10 9 6 5 5 7 7 6 7 6 6 6
5 5 5 5 5 5 5 5 5 5 5 5 5 5 5 5 5 5 5 5 5 5 6 5 6 7 8 7 9 10 10 11 10 9 6 5 6 6 6 5 7 6 6
Wind_Direction
359 3 7 1 5 7 6 356 352 359 5 4 2 10 5 359 356 350 341 340 337 335 338 333 323 324 316 318 313 307 299 290 280 295 297 304 300 303 309 303 301 299 304
349 359 1 360 8 9 0 355 2 6 6 6 9 9 5 1 358 350 340 343 338 333 332 330 324 322 321 316 313 308 302 292 282 292 300 305 305 303 303 304 310 309 304
351 359 0 360 1 356 351 356 4 7 9 10 12 8 0 356 355 348 342 333 330 324 323 319 319 324 319 315 312 308 303 300 292 291 297 304 306 310 310 308 306 302 304
347 354 348 341 339 338 347 359 3 5 9 9 5 359 352 350 350 343 337 331 329 331 334 332 327 323 318 312 309 311 308 303 299 294 296 303 305 308 310 312 314 313 309
345 342 317 325 338 347 355 358 2 6 1 1 2 358 351 349 350 341 332 335 340 344 347 343 340 339 337 333 325 321 314 302 301 298 299 305 307 316 315 313 309 313 305
324 304 313 334 345 350 348 353 3 359 353 3 2 354 350 348 351 352 353 351 350 348 342 340 337 341 339 336 332 331 331 319 311 306 298 300 304 311 311 309 310 312 306
286 299 316 327 331 330 340 357 354 343 347 352 348 345 341 344 350 351 355 359 355 347 339 338 338 340 340 332 329 331 332 328 323 312 303 300 304 311 309 305 304 301 296
275 291 306 310 304 317 338 336 326 332 333 332 334 331 331 338 344 344 343 343 342 339 337 336 334 336 342 337 334 331 328 327 322 317 305 305 308 310 307 302 301 300 294
268 276 280 279 288 310 314 306 309 320 320 323 331 333 331 330 340 343 340 329 328 327 331 338 335 330 333 335 333 327 325 325 328 326 321 316 315 316 316 313 309 307 302
256 260 265 265 266 274 281 289 300 297 302 314 323 333 330 329 341 345 340 325 323 324 326 330 332 331 332 336 336 332 325 322 327 328 324 322 319 317 321 316 308 303 303
253 258 264 257 252 260 276 291 303 304 318 317 316 321 322 323 331 340 340 331 324 319 319 326 328 332 333 336 336 330 320 324 326 325 322 321 321 321 322 318 308 297 293
238 245 256 259 255 255 262 284 298 294 294 298 305 308 313 316 323 328 331 332 330 317 314 318 322 330 335 336 336 331 331 332 326 324 322 322 324 323 321 316 308 299 288
228 239 246 252 253 252 240 252 269 264 270 285 291 296 306 313 313 321 324 328 328 320 317 323 326 331 333 333 333 333 334 330 324 319 315 313 314 312 313 311 307 302 295
223 238 235 231 239 242 243 238 238 243 250 265 274 282 292 299 301 310 311 315 318 316 316 319 322 327 329 329 331 332 329 324 315 307 308 310 312 314 314 315 312 313 308
221 233 233 229 231 234 237 237 236 237 231 243 252 262 277 283 295 310 314 305 304 308 319 321 322 326 329 328 326 322 322 323 319 317 315 316 316 316 315 318 313 313 306
218 225 224 223 225 228 242 268 266 260 271 269 276 280 277 290 305 309 314 318 325 335 350 321 317 318 315 316 317 316 316 316 315 315 313 313 314 315 316 317 315 311 308
215 218 216 215 216 219 226 241 271 288 280 280 286 290 292 300 305 312 317 321 331 346 334 302 303 304 304 306 306 305 304 307 308 307 308 311 312 313 313 313 313 310 307
216 216 212 216 215 216 220 229 238 253 277 284 289 292 300 303 306 310 318 328 320 324 279 277 283 289 293 296 296 296 298 303 303 302 304 305 307 308 308 308 307 306 307
211 215 213 215 215 216 219 225 232 240 251 267 283 294 300 302 302 307 319 271 265 275 274 272 272 276 280 283 285 286 288 291 294 297 297 300 302 303 301 301 302 303 302
215 214 206 206 209 213 215 221 230 237 247 255 261 266 278 288 280 286 273 253 255 263 267 269 271 270 272 275 278 280 283 284 288 289 292 296 297 296 296 297 299 300 299
208 209 203 205 212 214 217 222 228 232 241 249 253 255 262 248 255 260 262 258 255 260 265 268 271 272 270 270 271 273 275 279 281 284 287 291 295 296 296 295 296 295 296
201 202 202 210 214 217 222 225 228 234 242 250 262 267 266 253 250 254 257 259 256 253 254 259 266 265 261 260 263 267 271 275 277 279 283 286 287 288 291 293 294 297 297
200 203 207 213 215 219 223 227 229 234 241 245 250 254 254 250 251 252 256 259 260 261 259 256 263 268 264 258 252 251 258 264 265 266 272 279 281 282 284 285 288 293 294
199 203 209 213 214 219 225 230 232 235 239 243 244 246 248 250 253 257 258 260 262 264 262 259 259 263 269 273 267 259 258 261 260 258 254 262 270 275 277 280 282 286 288
199 204 209 213 216 221 226 231 234 236 238 240 242 246 249 250 254 258 259 260 262 265 268 267 263 264 269 273 274 272 273 276 272 260 251 251 259 263 268 273 278 284 285
204 208 213 215 217 220 224 231 235 235 238 240 241 243 246 249 253 256 259 260 265 269 272 271 267 270 275 276 276 278 279 279 274 263 247 245 252 259 262 266 274 278 284